Year,Month,Day,Hour,Minute,Value (Times are PST for temperature in C)
2015,03,11,00,00,9.20
2015,03,11,00,01,9.20
2015,03,11,00,02,9.20
2015,03,11,00,03,9.20
2015,03,11,00,04,9.20
2015,03,11,00,05,9.20
2015,03,11,00,06,9.20
2015,03,11,00,07,9.20
2015,03,11,00,08,9.20
2015,03,11,00,09,9.20
2015,03,11,00,10,9.20
2015,03,11,00,11,9.20
2015,03,11,00,12,9.20
2015,03,11,00,13,9.20
2015,03,11,00,14,9.20
2015,03,11,00,15,9.20
2015,03,11,00,16,9.20
2015,03,11,00,17,9.20
2015,03,11,00,18,9.20
2015,03,11,00,19,9.20
2015,03,11,00,20,9.20
2015,03,11,00,21,9.20
2015,03,11,00,22,9.20
2015,03,11,00,23,9.20
2015,03,11,00,24,9.20
2015,03,11,00,25,9.20
2015,03,11,00,26,9.20
2015,03,11,00,27,9.20
2015,03,11,00,28,9.30
2015,03,11,00,29,9.30
2015,03,11,00,30,9.30
2015,03,11,00,31,9.30
2015,03,11,00,32,9.30
2015,03,11,00,33,9.30
2015,03,11,00,34,9.30
2015,03,11,00,35,9.30
2015,03,11,00,36,9.40
2015,03,11,00,37,9.40
2015,03,11,00,38,9.40
2015,03,11,00,39,9.40
2015,03,11,00,40,9.40
2015,03,11,00,41,9.40
2015,03,11,00,42,9.40
2015,03,11,00,43,9.40
2015,03,11,00,44,9.40
2015,03,11,00,45,9.40
2015,03,11,00,46,9.40
2015,03,11,00,47,9.40
2015,03,11,00,48,9.40
2015,03,11,00,49,9.40
2015,03,11,00,50,9.40
2015,03,11,00,51,9.40
2015,03,11,00,52,9.40
2015,03,11,00,53,9.40
2015,03,11,00,54,9.40
2015,03,11,00,55,9.40
2015,03,11,00,56,9.40
2015,03,11,00,57,9.40
2015,03,11,00,58,9.40
2015,03,11,00,59,9.40
2015,03,11,01,00,9.40
2015,03,11,01,01,9.40
2015,03,11,01,02,9.40
2015,03,11,01,03,9.40
2015,03,11,01,04,9.40
2015,03,11,01,05,9.40
2015,03,11,01,06,9.40
2015,03,11,01,07,9.40
2015,03,11,01,08,9.40
2015,03,11,01,09,9.40
2015,03,11,01,10,9.40
2015,03,11,01,11,9.40
2015,03,11,01,12,9.40
2015,03,11,01,13,9.40
2015,03,11,01,14,9.40
2015,03,11,01,15,9.40
2015,03,11,01,16,9.40
2015,03,11,01,17,9.40
2015,03,11,01,18,9.40
2015,03,11,01,19,9.40
2015,03,11,01,20,9.40
2015,03,11,01,21,9.40
2015,03,11,01,22,9.40
2015,03,11,01,23,9.40
2015,03,11,01,24,9.30
2015,03,11,01,25,9.30
2015,03,11,01,26,9.30
2015,03,11,01,27,9.30
2015,03,11,01,28,9.30
2015,03,11,01,29,9.30
2015,03,11,01,30,9.30
2015,03,11,01,31,9.30
2015,03,11,01,32,9.30
2015,03,11,01,33,9.30
2015,03,11,01,34,9.30
2015,03,11,01,35,9.30
2015,03,11,01,36,9.30
2015,03,11,01,37,9.30
2015,03,11,01,38,9.30
2015,03,11,01,39,9.30
2015,03,11,01,40,9.30
2015,03,11,01,41,9.30
2015,03,11,01,42,9.30
2015,03,11,01,43,9.30
2015,03,11,01,44,9.30
2015,03,11,01,45,9.20
2015,03,11,01,46,9.20
2015,03,11,01,47,9.20
2015,03,11,01,48,9.20
2015,03,11,01,49,9.20
2015,03,11,01,50,9.20
2015,03,11,01,51,9.20
2015,03,11,01,52,9.20
2015,03,11,01,53,9.20
2015,03,11,01,54,9.20
2015,03,11,01,55,9.20
2015,03,11,01,56,9.20
2015,03,11,01,57,9.20
2015,03,11,01,58,9.20
2015,03,11,01,59,9.20
2015,03,11,02,00,9.20
2015,03,11,02,01,9.20
2015,03,11,02,02,9.20
2015,03,11,02,03,9.20
2015,03,11,02,04,9.20
2015,03,11,02,05,9.20
2015,03,11,02,06,9.20
2015,03,11,02,07,9.20
2015,03,11,02,08,9.20
2015,03,11,02,09,9.20
2015,03,11,02,10,9.20
2015,03,11,02,11,9.20
2015,03,11,02,12,9.20
2015,03,11,02,13,9.20
2015,03,11,02,14,9.20
2015,03,11,02,15,9.20
2015,03,11,02,16,9.20
2015,03,11,02,17,9.10
2015,03,11,02,18,9.10
2015,03,11,02,19,9.10
2015,03,11,02,20,9.10
2015,03,11,02,21,9.10
2015,03,11,02,22,9.10
2015,03,11,02,23,9.10
2015,03,11,02,24,9.10
2015,03,11,02,25,9.10
2015,03,11,02,26,9.10
2015,03,11,02,27,9.10
2015,03,11,02,28,9.10
2015,03,11,02,29,9.10
2015,03,11,02,30,9.10
2015,03,11,02,31,9.10
2015,03,11,02,32,9.10
2015,03,11,02,33,9.10
2015,03,11,02,34,9.10
2015,03,11,02,35,9.10
2015,03,11,02,36,9.10
2015,03,11,02,37,9.10
2015,03,11,02,38,9.10
2015,03,11,02,39,9.10
2015,03,11,02,40,9.10
2015,03,11,02,41,9.10
2015,03,11,02,42,9.10
2015,03,11,02,43,9.10
2015,03,11,02,44,9.10
2015,03,11,02,45,9.10
2015,03,11,02,46,9.10
2015,03,11,02,47,9.10
2015,03,11,02,48,9.10
2015,03,11,02,49,9.10
2015,03,11,02,50,9.10
2015,03,11,02,51,9.10
2015,03,11,02,52,9.10
2015,03,11,02,53,9.10
2015,03,11,02,54,9.10
2015,03,11,02,55,9.10
2015,03,11,02,56,9.10
2015,03,11,02,57,9.10
2015,03,11,02,58,9.10
2015,03,11,02,59,9.10
2015,03,11,03,00,9.10
2015,03,11,03,01,9.10
2015,03,11,03,02,9.20
2015,03,11,03,03,9.20
2015,03,11,03,04,9.20
2015,03,11,03,05,9.20
2015,03,11,03,06,9.20
2015,03,11,03,07,9.20
2015,03,11,03,08,9.20
2015,03,11,03,09,9.20
2015,03,11,03,10,9.20
2015,03,11,03,11,9.20
2015,03,11,03,12,9.20
2015,03,11,03,13,9.20
2015,03,11,03,14,9.20
2015,03,11,03,15,9.20
2015,03,11,03,16,9.20
2015,03,11,03,17,9.20
2015,03,11,03,18,9.20
2015,03,11,03,19,9.20
2015,03,11,03,20,9.20
2015,03,11,03,21,9.20
2015,03,11,03,22,9.20
2015,03,11,03,23,9.20
2015,03,11,03,24,9.20
2015,03,11,03,25,9.20
2015,03,11,03,26,9.20
2015,03,11,03,27,9.20
2015,03,11,03,28,9.20
2015,03,11,03,29,9.30
2015,03,11,03,30,9.30
2015,03,11,03,31,9.30
2015,03,11,03,32,9.30
2015,03,11,03,33,9.30
2015,03,11,03,34,9.40
2015,03,11,03,35,9.40
2015,03,11,03,36,9.40
2015,03,11,03,37,9.40
2015,03,11,03,38,9.40
2015,03,11,03,39,9.40
2015,03,11,03,40,9.40
2015,03,11,03,41,9.50
2015,03,11,03,42,9.50
2015,03,11,03,43,9.50
2015,03,11,03,44,9.50
2015,03,11,03,45,9.50
2015,03,11,03,46,9.60
2015,03,11,03,47,9.60
2015,03,11,03,48,9.60
2015,03,11,03,49,9.60
2015,03,11,03,50,9.60
2015,03,11,03,51,9.60
2015,03,11,03,52,9.60
2015,03,11,03,53,9.70
2015,03,11,03,54,9.70
2015,03,11,03,55,9.70
2015,03,11,03,56,9.70
2015,03,11,03,57,9.70
2015,03,11,03,58,9.70
2015,03,11,03,59,9.70
2015,03,11,04,00,9.70
2015,03,11,04,01,9.70
2015,03,11,04,02,9.70
2015,03,11,04,03,9.70
2015,03,11,04,04,9.70
2015,03,11,04,05,9.70
2015,03,11,04,06,9.70
2015,03,11,04,07,9.80
2015,03,11,04,08,9.80
2015,03,11,04,09,9.80
2015,03,11,04,10,9.80
2015,03,11,04,11,9.80
2015,03,11,04,12,9.80
2015,03,11,04,13,9.80
2015,03,11,04,14,9.80
2015,03,11,04,15,9.80
2015,03,11,04,16,9.80
2015,03,11,04,17,9.80
2015,03,11,04,18,9.80
2015,03,11,04,19,9.90
2015,03,11,04,20,9.90
2015,03,11,04,21,9.90
2015,03,11,04,22,9.90
2015,03,11,04,23,9.90
2015,03,11,04,24,9.90
2015,03,11,04,25,9.90
2015,03,11,04,26,9.90
2015,03,11,04,27,9.90
2015,03,11,04,28,9.90
2015,03,11,04,29,9.90
2015,03,11,04,30,9.90
2015,03,11,04,31,9.90
2015,03,11,04,32,9.90
2015,03,11,04,33,9.90
2015,03,11,04,34,9.90
2015,03,11,04,35,9.90
2015,03,11,04,36,9.90
2015,03,11,04,37,10.00
2015,03,11,04,38,10.00
2015,03,11,04,39,10.00
2015,03,11,04,40,10.00
2015,03,11,04,41,10.00
2015,03,11,04,42,10.00
2015,03,11,04,43,10.10
2015,03,11,04,44,10.10
2015,03,11,04,45,10.10
2015,03,11,04,46,10.10
2015,03,11,04,47,10.10
2015,03,11,04,48,10.10
2015,03,11,04,49,10.10
2015,03,11,04,50,10.10
2015,03,11,04,51,10.20
2015,03,11,04,52,10.20
2015,03,11,04,53,10.20
2015,03,11,04,54,10.20
2015,03,11,04,55,10.30
2015,03,11,04,56,10.30
2015,03,11,04,57,10.30
2015,03,11,04,58,10.30
2015,03,11,04,59,10.30
2015,03,11,05,00,10.30
2015,03,11,05,01,10.40
2015,03,11,05,02,10.30
2015,03,11,05,03,10.30
2015,03,11,05,04,10.30
2015,03,11,05,05,10.30
2015,03,11,05,06,10.30
2015,03,11,05,07,10.40
2015,03,11,05,08,10.40
2015,03,11,05,09,10.40
2015,03,11,05,10,10.40
2015,03,11,05,11,10.40
2015,03,11,05,12,10.40
2015,03,11,05,13,10.40
2015,03,11,05,14,10.40
2015,03,11,05,15,10.40
2015,03,11,05,16,10.40
2015,03,11,05,17,10.40
2015,03,11,05,18,10.40
2015,03,11,05,19,10.40
2015,03,11,05,20,10.40
2015,03,11,05,21,10.40
2015,03,11,05,22,10.40
2015,03,11,05,23,10.40
2015,03,11,05,24,10.40
2015,03,11,05,25,10.40
2015,03,11,05,26,10.40
2015,03,11,05,27,10.40
2015,03,11,05,28,10.40
2015,03,11,05,29,10.40
2015,03,11,05,30,10.40
2015,03,11,05,31,10.40
2015,03,11,05,32,10.50
2015,03,11,05,33,10.50
2015,03,11,05,34,10.50
2015,03,11,05,35,10.50
2015,03,11,05,36,10.60
2015,03,11,05,37,10.60
2015,03,11,05,38,10.60
2015,03,11,05,39,10.60
2015,03,11,05,40,10.60
2015,03,11,05,41,10.60
2015,03,11,05,42,10.60
2015,03,11,05,43,10.60
2015,03,11,05,44,10.60
2015,03,11,05,45,10.60
2015,03,11,05,46,10.60
2015,03,11,05,47,10.60
2015,03,11,05,48,10.60
2015,03,11,05,49,10.60
2015,03,11,05,50,10.60
2015,03,11,05,51,10.60
2015,03,11,05,52,10.60
2015,03,11,05,53,10.70
2015,03,11,05,54,10.70
2015,03,11,05,55,10.70
2015,03,11,05,56,10.70
2015,03,11,05,57,10.70
2015,03,11,05,58,10.70
2015,03,11,05,59,10.70
2015,03,11,06,00,10.70
2015,03,11,06,01,10.70
2015,03,11,06,02,10.70
2015,03,11,06,03,10.70
2015,03,11,06,04,10.70
2015,03,11,06,05,10.70
2015,03,11,06,06,10.70
2015,03,11,06,07,10.70
2015,03,11,06,08,10.70
2015,03,11,06,09,10.80
2015,03,11,06,10,10.80
2015,03,11,06,11,10.80
2015,03,11,06,12,10.80
2015,03,11,06,13,10.80
2015,03,11,06,14,10.80
2015,03,11,06,15,10.80
2015,03,11,06,16,10.80
2015,03,11,06,17,10.80
2015,03,11,06,18,10.90
2015,03,11,06,19,10.90
2015,03,11,06,20,10.90
2015,03,11,06,21,10.90
2015,03,11,06,22,10.90
2015,03,11,06,23,10.90
2015,03,11,06,24,10.90
2015,03,11,06,25,11.00
2015,03,11,06,26,11.00
2015,03,11,06,27,11.00
2015,03,11,06,28,11.00
2015,03,11,06,29,11.00
2015,03,11,06,30,11.10
2015,03,11,06,31,11.10
2015,03,11,06,32,11.10
2015,03,11,06,33,11.10
2015,03,11,06,34,11.10
2015,03,11,06,35,11.10
2015,03,11,06,36,11.10
2015,03,11,06,37,11.10
2015,03,11,06,38,11.10
2015,03,11,06,39,11.10
2015,03,11,06,40,11.10
2015,03,11,06,41,11.10
2015,03,11,06,42,11.10
2015,03,11,06,43,11.10
2015,03,11,06,44,11.10
2015,03,11,06,45,11.10
2015,03,11,06,46,11.00
2015,03,11,06,47,11.00
2015,03,11,06,48,11.00
2015,03,11,06,49,11.00
2015,03,11,06,50,10.90
2015,03,11,06,51,10.90
2015,03,11,06,52,10.90
2015,03,11,06,53,10.90
2015,03,11,06,54,10.80
2015,03,11,06,55,10.80
2015,03,11,06,56,10.80
2015,03,11,06,57,10.80
2015,03,11,06,58,10.70
2015,03,11,06,59,10.70
2015,03,11,07,00,10.70
2015,03,11,07,01,10.70
2015,03,11,07,02,10.70
2015,03,11,07,03,10.70
2015,03,11,07,04,10.70
2015,03,11,07,05,10.70
2015,03,11,07,06,10.70
2015,03,11,07,07,10.70
2015,03,11,07,08,10.70
2015,03,11,07,09,10.70
2015,03,11,07,10,10.70
2015,03,11,07,11,10.80
2015,03,11,07,12,10.80
2015,03,11,07,13,10.80
2015,03,11,07,14,10.70
2015,03,11,07,15,10.70
2015,03,11,07,16,10.70
2015,03,11,07,17,10.70
2015,03,11,07,18,10.70
2015,03,11,07,19,10.70
2015,03,11,07,20,10.80
2015,03,11,07,21,10.80
2015,03,11,07,22,10.80
2015,03,11,07,23,10.80
2015,03,11,07,24,10.80
2015,03,11,07,25,10.80
2015,03,11,07,26,10.80
2015,03,11,07,27,10.80
2015,03,11,07,28,10.80
2015,03,11,07,29,10.70
2015,03,11,07,30,10.80
2015,03,11,07,31,10.80
2015,03,11,07,32,10.70
2015,03,11,07,33,10.70
2015,03,11,07,34,10.70
2015,03,11,07,35,10.70
2015,03,11,07,36,10.70
2015,03,11,07,37,10.70
2015,03,11,07,38,10.70
2015,03,11,07,39,10.70
2015,03,11,07,40,10.70
2015,03,11,07,41,10.70
2015,03,11,07,42,10.70
2015,03,11,07,43,10.70
2015,03,11,07,44,10.80
2015,03,11,07,45,10.70
2015,03,11,07,46,10.80
2015,03,11,07,47,10.80
2015,03,11,07,48,10.80
2015,03,11,07,49,10.80
2015,03,11,07,50,10.80
2015,03,11,07,51,10.80
2015,03,11,07,52,10.80
2015,03,11,07,53,10.80
2015,03,11,07,54,10.80
2015,03,11,07,55,10.80
2015,03,11,07,56,10.80
2015,03,11,07,57,10.80
2015,03,11,07,58,10.80
2015,03,11,07,59,10.80
2015,03,11,08,00,10.80
2015,03,11,08,01,10.80
2015,03,11,08,02,10.80
2015,03,11,08,03,10.80
2015,03,11,08,04,10.80
2015,03,11,08,05,10.70
2015,03,11,08,06,10.70
2015,03,11,08,07,10.70
2015,03,11,08,08,10.70
2015,03,11,08,09,10.70
2015,03,11,08,10,10.70
2015,03,11,08,11,10.70
2015,03,11,08,12,10.70
2015,03,11,08,13,10.70
2015,03,11,08,14,10.60
2015,03,11,08,15,10.60
2015,03,11,08,16,10.60
2015,03,11,08,17,10.60
2015,03,11,08,18,10.50
2015,03,11,08,19,10.50
2015,03,11,08,20,10.50
2015,03,11,08,21,10.40
2015,03,11,08,22,10.40
2015,03,11,08,23,10.40
2015,03,11,08,24,10.40
2015,03,11,08,25,10.40
2015,03,11,08,26,10.40
2015,03,11,08,27,10.40
2015,03,11,08,28,10.40
2015,03,11,08,29,10.30
2015,03,11,08,30,10.40
2015,03,11,08,31,10.30
2015,03,11,08,32,10.40
2015,03,11,08,33,10.40
2015,03,11,08,34,10.40
2015,03,11,08,35,10.40
2015,03,11,08,36,10.40
2015,03,11,08,37,10.40
2015,03,11,08,38,10.40
2015,03,11,08,39,10.40
2015,03,11,08,40,10.40
2015,03,11,08,41,10.40
2015,03,11,08,42,10.40
2015,03,11,08,43,10.40
2015,03,11,08,44,10.40
2015,03,11,08,45,10.50
2015,03,11,08,46,10.50
2015,03,11,08,47,10.50
2015,03,11,08,48,10.50
2015,03,11,08,49,10.60
2015,03,11,08,50,10.60
2015,03,11,08,51,10.60
2015,03,11,08,52,10.60
2015,03,11,08,53,10.60
2015,03,11,08,54,10.60
2015,03,11,08,55,10.60
2015,03,11,08,56,10.60
2015,03,11,08,57,10.60
2015,03,11,08,58,10.60
2015,03,11,08,59,10.60
2015,03,11,09,00,10.60
2015,03,11,09,01,10.60
2015,03,11,09,02,10.60
2015,03,11,09,03,10.60
2015,03,11,09,04,10.60
2015,03,11,09,05,10.60
2015,03,11,09,06,10.60
2015,03,11,09,07,10.60
2015,03,11,09,08,10.50
2015,03,11,09,09,10.50
2015,03,11,09,10,10.50
2015,03,11,09,11,10.50
2015,03,11,09,12,10.50
2015,03,11,09,13,10.50
2015,03,11,09,14,10.50
2015,03,11,09,15,10.50
2015,03,11,09,16,10.50
2015,03,11,09,17,10.50
2015,03,11,09,18,10.60
2015,03,11,09,19,10.60
2015,03,11,09,20,10.60
2015,03,11,09,21,10.60
2015,03,11,09,22,10.60
2015,03,11,09,23,10.60
2015,03,11,09,24,10.60
2015,03,11,09,25,10.60
2015,03,11,09,26,10.60
2015,03,11,09,27,10.60
2015,03,11,09,28,10.60
2015,03,11,09,29,10.70
2015,03,11,09,30,10.70
2015,03,11,09,31,10.70
2015,03,11,09,32,10.70
2015,03,11,09,33,10.70
2015,03,11,09,34,10.80
2015,03,11,09,35,10.80
2015,03,11,09,36,10.90
2015,03,11,09,37,11.00
2015,03,11,09,38,11.00
2015,03,11,09,39,11.10
2015,03,11,09,40,11.10
2015,03,11,09,41,11.20
2015,03,11,09,42,11.20
2015,03,11,09,43,11.20
2015,03,11,09,44,11.20
2015,03,11,09,45,11.30
2015,03,11,09,46,11.30
2015,03,11,09,47,11.40
2015,03,11,09,48,11.40
2015,03,11,09,49,11.50
2015,03,11,09,50,11.60
2015,03,11,09,51,11.60
2015,03,11,09,52,11.70
2015,03,11,09,53,11.80
2015,03,11,09,54,11.80
2015,03,11,09,55,11.90
2015,03,11,09,56,11.90
2015,03,11,09,57,12.00
2015,03,11,09,58,12.00
2015,03,11,09,59,12.00
2015,03,11,10,00,12.10
2015,03,11,10,01,12.10
2015,03,11,10,02,12.10
2015,03,11,10,03,12.10
2015,03,11,10,04,12.10
2015,03,11,10,05,12.10
2015,03,11,10,06,12.20
2015,03,11,10,07,12.20
2015,03,11,10,08,12.20
2015,03,11,10,09,12.20
2015,03,11,10,10,12.20
2015,03,11,10,11,12.30
2015,03,11,10,12,12.30
2015,03,11,10,13,12.30
2015,03,11,10,14,12.30
2015,03,11,10,15,12.30
2015,03,11,10,16,12.30
2015,03,11,10,17,12.30
2015,03,11,10,18,12.30
2015,03,11,10,19,12.30
2015,03,11,10,20,12.30
2015,03,11,10,21,12.30
2015,03,11,10,22,12.30
2015,03,11,10,23,12.30
2015,03,11,10,24,12.30
2015,03,11,10,25,12.30
2015,03,11,10,26,12.30
2015,03,11,10,27,12.30
2015,03,11,10,28,12.40
2015,03,11,10,29,12.40
2015,03,11,10,30,12.40
2015,03,11,10,31,12.40
2015,03,11,10,32,12.50
2015,03,11,10,33,12.50
2015,03,11,10,34,12.50
2015,03,11,10,35,12.50
2015,03,11,10,36,12.50
2015,03,11,10,37,12.50
2015,03,11,10,38,12.60
2015,03,11,10,39,12.60
2015,03,11,10,40,12.60
2015,03,11,10,41,12.60
2015,03,11,10,42,12.60
2015,03,11,10,43,12.60
2015,03,11,10,44,12.60
2015,03,11,10,45,12.60
2015,03,11,10,46,12.60
2015,03,11,10,47,12.60
2015,03,11,10,48,12.60
2015,03,11,10,49,12.70
2015,03,11,10,50,12.70
2015,03,11,10,51,12.70
2015,03,11,10,52,12.70
2015,03,11,10,53,12.70
2015,03,11,10,54,12.70
2015,03,11,10,55,12.80
2015,03,11,10,56,12.80
2015,03,11,10,57,12.80
2015,03,11,10,58,12.80
2015,03,11,10,59,12.80
2015,03,11,11,00,12.90
2015,03,11,11,01,12.90
2015,03,11,11,02,12.90
2015,03,11,11,03,12.90
2015,03,11,11,04,12.90
2015,03,11,11,05,12.90
2015,03,11,11,06,12.80
2015,03,11,11,07,12.80
2015,03,11,11,08,12.80
2015,03,11,11,09,12.90
2015,03,11,11,10,12.90
2015,03,11,11,11,12.90
2015,03,11,11,12,13.00
2015,03,11,11,13,13.00
2015,03,11,11,14,13.00
2015,03,11,11,15,13.00
2015,03,11,11,16,13.00
2015,03,11,11,17,13.00
2015,03,11,11,18,13.10
2015,03,11,11,19,13.10
2015,03,11,11,20,13.00
2015,03,11,11,21,13.00
2015,03,11,11,22,13.00
2015,03,11,11,23,12.90
2015,03,11,11,24,12.90
2015,03,11,11,25,13.00
2015,03,11,11,26,13.00
2015,03,11,11,27,13.10
2015,03,11,11,28,13.10
2015,03,11,11,29,13.10
2015,03,11,11,30,13.10
2015,03,11,11,31,13.10
2015,03,11,11,32,13.00
2015,03,11,11,33,13.10
2015,03,11,11,34,13.10
2015,03,11,11,35,13.10
2015,03,11,11,36,13.10
2015,03,11,11,37,13.20
2015,03,11,11,38,13.20
2015,03,11,11,39,13.20
2015,03,11,11,40,13.30
2015,03,11,11,41,13.30
2015,03,11,11,42,13.30
2015,03,11,11,43,13.40
2015,03,11,11,44,13.50
2015,03,11,11,45,13.50
2015,03,11,11,46,13.60
2015,03,11,11,47,13.60
2015,03,11,11,48,13.60
2015,03,11,11,49,13.60
2015,03,11,11,50,13.60
2015,03,11,11,51,13.60
2015,03,11,11,52,13.50
2015,03,11,11,53,13.60
2015,03,11,11,54,13.50
2015,03,11,11,55,13.50
2015,03,11,11,56,13.50
2015,03,11,11,57,13.50
2015,03,11,11,58,13.50
2015,03,11,11,59,13.50
2015,03,11,12,00,13.50
2015,03,11,12,01,13.50
2015,03,11,12,02,13.50
2015,03,11,12,03,13.50
2015,03,11,12,04,13.40
2015,03,11,12,05,13.40
2015,03,11,12,06,13.40
2015,03,11,12,07,13.40
2015,03,11,12,08,13.40
2015,03,11,12,09,13.40
2015,03,11,12,10,13.40
2015,03,11,12,11,13.40
2015,03,11,12,12,13.30
2015,03,11,12,13,13.30
2015,03,11,12,14,13.30
2015,03,11,12,15,13.20
2015,03,11,12,16,13.20
2015,03,11,12,17,13.10
2015,03,11,12,18,13.10
2015,03,11,12,19,13.00
2015,03,11,12,20,13.00
2015,03,11,12,21,13.00
2015,03,11,12,22,12.90
2015,03,11,12,23,12.90
2015,03,11,12,24,12.90
2015,03,11,12,25,12.90
2015,03,11,12,26,12.90
2015,03,11,12,27,13.00
2015,03,11,12,28,13.00
2015,03,11,12,29,13.10
2015,03,11,12,30,13.10
2015,03,11,12,31,13.10
2015,03,11,12,32,13.10
2015,03,11,12,33,13.10
2015,03,11,12,34,13.10
2015,03,11,12,35,13.10
2015,03,11,12,36,13.10
2015,03,11,12,37,13.10
2015,03,11,12,38,13.20
2015,03,11,12,39,13.10
2015,03,11,12,40,13.10
2015,03,11,12,41,13.20
2015,03,11,12,42,13.20
2015,03,11,12,43,13.20
2015,03,11,12,44,13.20
2015,03,11,12,45,13.20
2015,03,11,12,46,13.30
2015,03,11,12,47,13.20
2015,03,11,12,48,13.20
2015,03,11,12,49,13.20
2015,03,11,12,50,13.20
2015,03,11,12,51,13.20
2015,03,11,12,52,13.20
2015,03,11,12,53,13.20
2015,03,11,12,54,13.20
2015,03,11,12,55,13.30
2015,03,11,12,56,13.30
2015,03,11,12,57,13.30
2015,03,11,12,58,13.30
2015,03,11,12,59,13.30
2015,03,11,13,00,13.20
2015,03,11,13,01,13.20
2015,03,11,13,02,13.20
2015,03,11,13,03,13.20
2015,03,11,13,04,13.20
2015,03,11,13,05,13.20
2015,03,11,13,06,13.20
2015,03,11,13,07,13.20
2015,03,11,13,08,13.20
2015,03,11,13,09,13.20
2015,03,11,13,10,13.30
2015,03,11,13,11,13.30
2015,03,11,13,12,13.40
2015,03,11,13,13,13.50
2015,03,11,13,14,13.60
2015,03,11,13,15,13.70
2015,03,11,13,16,13.70
2015,03,11,13,17,13.70
2015,03,11,13,18,13.70
2015,03,11,13,19,13.70
2015,03,11,13,20,13.70
2015,03,11,13,21,13.70
2015,03,11,13,22,13.70
2015,03,11,13,23,13.70
2015,03,11,13,24,13.80
2015,03,11,13,25,13.80
2015,03,11,13,26,13.90
2015,03,11,13,27,14.00
2015,03,11,13,28,14.00
2015,03,11,13,29,14.10
2015,03,11,13,30,14.10
2015,03,11,13,31,14.20
2015,03,11,13,32,14.10
2015,03,11,13,33,14.10
2015,03,11,13,34,14.10
2015,03,11,13,35,14.00
2015,03,11,13,36,14.00
2015,03,11,13,37,13.90
2015,03,11,13,38,13.80
2015,03,11,13,39,13.80
2015,03,11,13,40,13.80
2015,03,11,13,41,13.80
2015,03,11,13,42,13.70
2015,03,11,13,43,13.70
2015,03,11,13,44,13.70
2015,03,11,13,45,13.60
2015,03,11,13,46,13.50
2015,03,11,13,47,13.40
2015,03,11,13,48,13.40
2015,03,11,13,49,13.30
2015,03,11,13,50,13.20
2015,03,11,13,51,13.20
2015,03,11,13,52,13.10
2015,03,11,13,53,13.10
2015,03,11,13,54,13.00
2015,03,11,13,55,13.00
2015,03,11,13,56,12.90
2015,03,11,13,57,12.90
2015,03,11,13,58,12.90
2015,03,11,13,59,12.90
2015,03,11,14,00,12.80
2015,03,11,14,01,12.80
2015,03,11,14,02,12.80
2015,03,11,14,03,12.90
2015,03,11,14,04,12.90
2015,03,11,14,05,12.90
2015,03,11,14,06,12.90
2015,03,11,14,07,12.90
2015,03,11,14,08,12.90
2015,03,11,14,09,13.00
2015,03,11,14,10,13.00
2015,03,11,14,11,13.10
2015,03,11,14,12,13.10
2015,03,11,14,13,13.00
2015,03,11,14,14,13.00
2015,03,11,14,15,13.10
2015,03,11,14,16,13.10
2015,03,11,14,17,13.10
2015,03,11,14,18,13.10
2015,03,11,14,19,13.10
2015,03,11,14,20,13.10
2015,03,11,14,21,13.10
2015,03,11,14,22,13.10
2015,03,11,14,23,13.10
2015,03,11,14,24,13.00
2015,03,11,14,25,13.00
2015,03,11,14,26,13.00
2015,03,11,14,27,12.90
2015,03,11,14,28,12.90
2015,03,11,14,29,12.90
2015,03,11,14,30,12.90
2015,03,11,14,31,12.90
2015,03,11,14,32,12.90
2015,03,11,14,33,12.90
2015,03,11,14,34,12.90
2015,03,11,14,35,12.90
2015,03,11,14,36,12.90
2015,03,11,14,37,13.00
2015,03,11,14,38,13.00
2015,03,11,14,39,13.00
2015,03,11,14,40,13.00
2015,03,11,14,41,13.10
2015,03,11,14,42,13.10
2015,03,11,14,43,13.10
2015,03,11,14,44,13.10
2015,03,11,14,45,13.10
2015,03,11,14,46,13.10
2015,03,11,14,47,13.20
2015,03,11,14,48,13.20
2015,03,11,14,49,13.20
2015,03,11,14,50,13.20
2015,03,11,14,51,13.20
2015,03,11,14,52,13.20
2015,03,11,14,53,13.20
2015,03,11,14,54,13.30
2015,03,11,14,55,13.30
2015,03,11,14,56,13.30
2015,03,11,14,57,13.30
2015,03,11,14,58,13.30
2015,03,11,14,59,13.40
2015,03,11,15,00,13.40
2015,03,11,15,01,13.40
2015,03,11,15,02,13.50
2015,03,11,15,03,13.60
2015,03,11,15,04,13.60
2015,03,11,15,05,13.60
2015,03,11,15,06,13.60
2015,03,11,15,07,13.70
2015,03,11,15,08,13.70
2015,03,11,15,09,13.70
2015,03,11,15,10,13.70
2015,03,11,15,11,13.70
2015,03,11,15,12,13.70
2015,03,11,15,13,13.70
2015,03,11,15,14,13.70
2015,03,11,15,15,13.70
2015,03,11,15,16,13.70
2015,03,11,15,17,13.60
2015,03,11,15,18,13.70
2015,03,11,15,19,13.70
2015,03,11,15,20,13.80
2015,03,11,15,21,13.80
2015,03,11,15,22,13.90
2015,03,11,15,23,13.90
2015,03,11,15,24,13.90
2015,03,11,15,25,13.90
2015,03,11,15,26,14.00
2015,03,11,15,27,14.00
2015,03,11,15,28,14.10
2015,03,11,15,29,14.10
2015,03,11,15,30,14.20
2015,03,11,15,31,14.20
2015,03,11,15,32,14.20
2015,03,11,15,33,14.30
2015,03,11,15,34,14.30
2015,03,11,15,35,14.30
2015,03,11,15,36,14.30
2015,03,11,15,37,14.40
2015,03,11,15,38,14.40
2015,03,11,15,39,14.40
2015,03,11,15,40,14.40
2015,03,11,15,41,14.40
2015,03,11,15,42,14.40
2015,03,11,15,43,14.40
2015,03,11,15,44,14.50
2015,03,11,15,45,14.50
2015,03,11,15,46,14.50
2015,03,11,15,47,14.50
2015,03,11,15,48,14.60
2015,03,11,15,49,14.60
2015,03,11,15,50,14.70
2015,03,11,15,51,14.70
2015,03,11,15,52,14.70
2015,03,11,15,53,14.70
2015,03,11,15,54,14.70
2015,03,11,15,55,14.80
2015,03,11,15,56,14.80
2015,03,11,15,57,14.80
2015,03,11,15,58,14.80
2015,03,11,15,59,14.80
2015,03,11,16,00,14.90
2015,03,11,16,01,14.90
2015,03,11,16,02,14.90
2015,03,11,16,03,14.90
2015,03,11,16,04,14.90
2015,03,11,16,05,14.90
2015,03,11,16,06,14.90
2015,03,11,16,07,14.90
2015,03,11,16,08,14.90
2015,03,11,16,09,14.90
2015,03,11,16,10,14.90
2015,03,11,16,11,15.00
2015,03,11,16,12,15.00
2015,03,11,16,13,15.10
2015,03,11,16,14,15.10
2015,03,11,16,15,15.10
2015,03,11,16,16,15.10
2015,03,11,16,17,15.20
2015,03,11,16,18,15.20
2015,03,11,16,19,15.20
2015,03,11,16,20,15.10
2015,03,11,16,21,15.10
2015,03,11,16,22,15.10
2015,03,11,16,23,15.20
2015,03,11,16,24,15.20
2015,03,11,16,25,15.20
2015,03,11,16,26,15.20
2015,03,11,16,27,15.30
2015,03,11,16,28,15.30
2015,03,11,16,29,15.30
2015,03,11,16,30,15.30
2015,03,11,16,31,15.30
2015,03,11,16,32,15.30
2015,03,11,16,33,15.30
2015,03,11,16,34,15.30
2015,03,11,16,35,15.30
2015,03,11,16,36,15.20
2015,03,11,16,37,15.20
2015,03,11,16,38,15.10
2015,03,11,16,39,15.00
2015,03,11,16,40,14.90
2015,03,11,16,41,14.80
2015,03,11,16,42,14.80
2015,03,11,16,43,14.70
2015,03,11,16,44,14.60
2015,03,11,16,45,14.60
2015,03,11,16,46,14.50
2015,03,11,16,47,14.50
2015,03,11,16,48,14.50
2015,03,11,16,49,14.50
2015,03,11,16,50,14.50
2015,03,11,16,51,14.50
2015,03,11,16,52,14.50
2015,03,11,16,53,14.50
2015,03,11,16,54,14.50
2015,03,11,16,55,14.50
2015,03,11,16,56,14.50
2015,03,11,16,57,14.50
2015,03,11,16,58,14.50
2015,03,11,16,59,14.50
2015,03,11,17,00,14.50
2015,03,11,17,01,14.60
2015,03,11,17,02,14.60
2015,03,11,17,03,14.60
2015,03,11,17,04,14.60
2015,03,11,17,05,14.50
2015,03,11,17,06,14.50
2015,03,11,17,07,14.50
2015,03,11,17,08,14.50
2015,03,11,17,09,14.50
2015,03,11,17,10,14.50
2015,03,11,17,11,14.50
2015,03,11,17,12,14.50
2015,03,11,17,13,14.50
2015,03,11,17,14,14.50
2015,03,11,17,15,14.50
2015,03,11,17,16,14.50
2015,03,11,17,17,14.40
2015,03,11,17,18,14.40
2015,03,11,17,19,14.40
2015,03,11,17,20,14.40
2015,03,11,17,21,14.30
2015,03,11,17,22,14.20
2015,03,11,17,23,14.10
2015,03,11,17,24,14.10
2015,03,11,17,25,14.00
2015,03,11,17,26,13.90
2015,03,11,17,27,13.90
2015,03,11,17,28,13.80
2015,03,11,17,29,13.80
2015,03,11,17,30,13.70
2015,03,11,17,31,13.60